Location: Unspecified
(0.0000°N, 0.0000°E)
Time: 06:33:45
(UTC+00:00)

Vanguard 3 - Pass Details

Date: 21 November 2019
Orbit: 508 x 3263 km, 33.3° (Epoch: 11 December)

Event Time Altitude Azimuth Distance (km) Brightness Sun altitude
Rises 21:12:02 0° 307° (NW) 5,508 11.6 -47.4°
Reaches altitude 10° 21:16:24 10° 308° (NW) 4,044 10.8 -48.3°
Enters shadow 21:18:27 16° 309° (NW) 3,331 10.3 -48.8°
